Location: Milton Keynes
(52.0316°N, 0.7531°W)
Time: 17:38:59
(UTC+00:00)

GENESIS II - Pass Details

Date: 30 January 2019
Orbit: 487 x 544 km, 64.5° (Epoch: 18 February)

Event Time Altitude Azimuth Distance (km) Brightness Sun altitude
Rises 04:51:40 0° 168° (SSE) 2,612 7.9 -26.8°
Reaches altitude 10° 04:54:52 10° 139° (SE) 1,748 7.3 -26.4°
Maximum altitude 04:56:37 13° 112° (ESE) 1,593 7.4 -26.1°
Drops below altitude 10° 04:58:23 10° 85° (E) 1,770 7.9 -25.8°
Sets 05:01:39 0° 57° (ENE) 2,680 8.8 -25.3°
